| time (UTC) | temp F | wind direction | speed MPH | gust MPH | rain 1hr in | rain 24hr in | rain mn in | humidity % | barometer mb |
| 20260504025721 | 57 | 229 | 0.0 | 0.0 | 0.00 | 0.00 | 0.00 | 66 | 1014.7 |
| 20260504024221 | 57 | 244 | 0.0 | 0.0 | 0.00 | 0.00 | 0.00 | 67 | 1014.5 |
| 20260504022721 | 57 | 247 | 0.0 | 0.0 | 0.00 | 0.00 | 0.00 | 69 | 1014.4 |
| 20260504021221 | 58 | 248 | 0.0 | 0.0 | 0.00 | 0.00 | 0.00 | 69 | 1014.4 |
| 20260504015721 | 58 | 247 | 0.0 | 0.0 | 0.00 | 0.00 | 0.00 | 67 | 1014.2 |
| 20260504014221 | 59 | 247 | 0.0 | 0.0 | 0.00 | 0.00 | 0.00 | 66 | 1014.3 |
| 20260504012722 | 59 | 248 | 0.0 | 0.0 | 0.00 | 0.00 | 0.00 | 65 | 1014.1 |
| 20260504011221 | 60 | 247 | 0.0 | 0.0 | 0.00 | 0.00 | 0.00 | 61 | 1014.0 |
| 20260504005722 | 61 | 247 | 0.0 | 0.0 | 0.00 | 0.00 | 0.00 | 58 | 1013.9 |
| 20260504004222 | 62 | 248 | 0.0 | 0.0 | 0.00 | 0.00 | 0.00 | 58 | 1013.8 |
| 20260504002722 | 63 | 247 | 0.0 | 0.0 | 0.00 | 0.00 | 0.00 | 56 | 1013.8 |
| 20260503235722 | 65 | 248 | 0.0 | 0.0 | 0.00 | 0.00 | 0.00 | 54 | 1013.8 |
| 20260503234222 | 66 | 247 | 0.0 | 1.0 | 0.00 | 0.00 | 0.00 | 52 | 1013.8 |
| 20260503232722 | 67 | 245 | 0.0 | 2.0 | 0.00 | 0.00 | 0.00 | 51 | 1013.8 |
| 20260503231222 | 68 | 246 | 1.0 | 2.0 | 0.00 | 0.00 | 0.00 | 48 | 1013.9 |
| 20260503225722 | 70 | 283 | 1.0 | 2.0 | 0.00 | 0.00 | 0.00 | 45 | 1014.0 |
| 20260503224222 | 72 | 248 | 1.0 | 2.0 | 0.00 | 0.00 | 0.00 | 42 | 1014.0 |
| 20260503222722 | 72 | 248 | 1.0 | 3.0 | 0.00 | 0.00 | 0.00 | 43 | 1014.1 |
| 20260503221222 | 72 | 254 | 1.0 | 4.0 | 0.00 | 0.00 | 0.00 | 44 | 1014.2 |
| 20260503215722 | 73 | 258 | 1.0 | 5.0 | 0.00 | 0.00 | 0.00 | 44 | 1014.1 |
| 20260503214222 | 73 | 244 | 0.0 | 4.0 | 0.00 | 0.00 | 0.00 | 43 | 1014.3 |
| 20260503212722 | 72 | 249 | 1.0 | 4.0 | 0.00 | 0.00 | 0.00 | 45 | 1014.6 |
| 20260503205722 | 73 | 248 | 2.0 | 5.0 | 0.00 | 0.00 | 0.00 | 44 | 1014.8 |
| 20260503204222 | 72 | 228 | 1.0 | 4.0 | 0.00 | 0.00 | 0.00 | 45 | 1015.2 |
| 20260503202722 | 72 | 245 | 2.0 | 5.0 | 0.00 | 0.00 | 0.00 | 41 | 1015.4 |
| 20260503201222 | 72 | 248 | 1.0 | 5.0 | 0.00 | 0.00 | 0.00 | 43 | 1015.8 |
| 20260503195722 | 71 | 211 | 1.0 | 3.0 | 0.00 | 0.00 | 0.00 | 41 | 1015.9 |
| 20260503194223 | 71 | 250 | 1.0 | 5.0 | 0.00 | 0.00 | 0.00 | 41 | 1016.2 |
| 20260503192723 | 70 | 200 | 1.0 | 2.0 | 0.00 | 0.00 | 0.00 | 42 | 1016.5 |
| 20260503185723 | 67 | 146 | 1.0 | 4.0 | 0.00 | 0.00 | 0.00 | 49 | 1016.8 |
| 20260503184223 | 67 | 241 | 1.0 | 4.0 | 0.00 | 0.00 | 0.00 | 50 | 1017.1 |
| 20260503182723 | 67 | 242 | 0.0 | 2.0 | 0.00 | 0.00 | 0.00 | 50 | 1017.1 |
| 20260503181223 | 66 | 229 | 1.0 | 2.0 | 0.00 | 0.00 | 0.00 | 52 | 1017.4 |
| 20260503175723 | 65 | 241 | 1.0 | 4.0 | 0.00 | 0.00 | 0.00 | 50 | 1017.7 |
| 20260503174223 | 66 | 252 | 1.0 | 4.0 | 0.00 | 0.00 | 0.00 | 48 | 1018.0 |
| 20260503172723 | 64 | 72 | 1.0 | 2.0 | 0.00 | 0.00 | 0.00 | 50 | 1018.1 |
| 20260503171223 | 64 | 242 | 1.0 | 2.0 | 0.00 | 0.00 | 0.00 | 55 | 1018.4 |
| 20260503081226 | 46 | 108 | 0.0 | 0.0 | 0.00 | 0.00 | 0.00 | 86 | 1016.5 |
| 20260503072725 | 47 | 78 | 0.0 | 0.0 | 0.00 | 0.00 | 0.00 | 85 | 1016.3 |
| 20260503071226 | 47 | 78 | 0.0 | 0.0 | 0.00 | 0.00 | 0.00 | 85 | 1016.1 |
| 20260503054226 | 49 | 227 | 0.0 | 1.0 | 0.00 | 0.00 | 0.00 | 81 | 1015.8 |
| 20260503051226 | 49 | 227 | 0.0 | 0.0 | 0.00 | 0.00 | 0.00 | 80 | 1015.8 |
| 20260503041226 | 51 | 226 | 0.0 | 0.0 | 0.00 | 0.00 | 0.00 | 75 | 1015.3 |
| 20260503035726 | 51 | 227 | 0.0 | 0.0 | 0.00 | 0.00 | 0.00 | 74 | 1015.3 |
| 20260503032726 | 53 | 227 | 0.0 | 1.0 | 0.00 | 0.00 | 0.00 | 71 | 1015.2 |